TimeCDT,TemperatureF,Dew PointF,Humidity,Sea Level PressureIn,VisibilityMPH,Wind Direction,Wind SpeedMPH,Gust SpeedMPH,PrecipitationIn,Events,Conditions,WindDirDegrees,DateUTC
12:14 AM,55.4,48.2,77,30.25,10.0,NNE,6.9,-,N/A,,Clear,30,2013-09-13 05:14:00
12:33 AM,55.4,48.2,77,30.25,10.0,North,5.8,-,N/A,,Clear,360,2013-09-13 05:33:00
12:53 AM,55.4,46.4,72,30.26,10.0,North,5.8,-,N/A,,Clear,360,2013-09-13 05:53:00
1:14 AM,55.4,46.4,72,30.26,10.0,North,5.8,-,N/A,,Clear,360,2013-09-13 06:14:00
1:33 AM,55.4,46.4,72,30.25,10.0,NNE,4.6,-,N/A,,Clear,20,2013-09-13 06:33:00
1:53 AM,53.6,48.2,82,30.25,10.0,South,3.5,-,N/A,,Clear,180,2013-09-13 06:53:00
2:14 AM,50.0,46.4,87,30.26,10.0,South,3.5,-,N/A,,Clear,190,2013-09-13 07:14:00
2:33 AM,50.0,46.4,87,30.26,10.0,SSW,4.6,-,N/A,,Clear,210,2013-09-13 07:33:00
2:53 AM,48.2,46.4,93,30.26,10.0,South,4.6,-,N/A,,Clear,180,2013-09-13 07:53:00
3:14 AM,46.4,44.6,93,30.26,10.0,SSW,4.6,-,N/A,,Clear,210,2013-09-13 08:14:00
3:33 AM,46.4,44.6,93,30.26,10.0,SSW,3.5,-,N/A,,Clear,210,2013-09-13 08:33:00
3:54 AM,46.4,44.6,93,30.26,10.0,SSW,3.5,-,N/A,,Clear,210,2013-09-13 08:54:00
4:13 AM,46.4,44.6,93,30.26,10.0,South,4.6,-,N/A,,Clear,190,2013-09-13 09:13:00
4:33 AM,46.4,44.6,93,30.26,10.0,SSW,3.5,-,N/A,,Clear,200,2013-09-13 09:33:00
4:54 AM,46.4,42.8,87,30.27,10.0,SSW,3.5,-,N/A,,Clear,210,2013-09-13 09:54:00
5:13 AM,44.6,42.8,93,30.27,10.0,SW,3.5,-,N/A,,Clear,220,2013-09-13 10:13:00
5:33 AM,44.6,42.8,93,30.27,10.0,South,4.6,-,N/A,,Clear,190,2013-09-13 10:33:00
5:54 AM,44.6,42.8,93,30.27,10.0,South,4.6,-,N/A,,Clear,190,2013-09-13 10:54:00
6:13 AM,44.6,42.8,93,30.27,10.0,SW,3.5,-,N/A,,Clear,220,2013-09-13 11:13:00
6:33 AM,44.6,42.8,93,30.27,10.0,SSW,4.6,-,N/A,,Clear,200,2013-09-13 11:33:00
6:54 AM,44.6,42.8,93,30.28,10.0,South,4.6,-,N/A,,Clear,190,2013-09-13 11:54:00
7:13 AM,44.6,42.8,93,30.28,10.0,South,4.6,-,N/A,,Clear,190,2013-09-13 12:13:00
7:33 AM,44.6,42.8,93,30.28,10.0,South,4.6,-,N/A,,Clear,190,2013-09-13 12:33:00
7:54 AM,46.4,42.8,87,30.27,10.0,SSW,4.6,-,N/A,,Clear,200,2013-09-13 12:54:00
8:13 AM,46.4,44.6,93,30.27,10.0,SW,4.6,-,N/A,,Clear,220,2013-09-13 13:13:00
8:33 AM,48.2,44.6,87,30.28,10.0,SW,4.6,-,N/A,,Clear,230,2013-09-13 13:33:00
8:54 AM,51.8,46.4,82,30.28,10.0,SW,4.6,-,N/A,,Clear,220,2013-09-13 13:54:00
9:13 AM,51.8,46.4,82,30.28,10.0,SSW,4.6,-,N/A,,Clear,210,2013-09-13 14:13:00
9:33 AM,55.4,46.4,72,30.28,10.0,Calm,Calm,-,N/A,,Clear,0,2013-09-13 14:33:00
9:54 AM,55.4,46.4,72,30.29,10.0,Calm,Calm,-,N/A,,Clear,0,2013-09-13 14:54:00
10:13 AM,55.4,48.2,77,30.29,10.0,Calm,Calm,-,N/A,,Clear,0,2013-09-13 15:13:00
10:33 AM,57.2,48.2,72,30.29,10.0,Calm,Calm,-,N/A,,Clear,0,2013-09-13 15:33:00
10:54 AM,57.2,48.2,72,30.28,10.0,East,3.5,-,N/A,,Clear,90,2013-09-13 15:54:00
11:13 AM,59.0,50.0,72,30.28,10.0,ENE,3.5,-,N/A,,Clear,70,2013-09-13 16:13:00
11:33 AM,59.0,48.2,67,30.28,10.0,East,3.5,-,N/A,,Clear,80,2013-09-13 16:33:00
11:54 AM,60.8,50.0,68,30.27,10.0,North,3.5,-,N/A,,Clear,10,2013-09-13 16:54:00
12:13 PM,60.8,50.0,68,30.26,10.0,NE,3.5,-,N/A,,Clear,50,2013-09-13 17:13:00
12:33 PM,60.8,48.2,63,30.25,10.0,NE,3.5,-,N/A,,Clear,50,2013-09-13 17:33:00
12:54 PM,60.8,48.2,63,30.25,10.0,NNE,5.8,-,N/A,,Clear,30,2013-09-13 17:54:00
1:13 PM,62.6,48.2,59,30.24,10.0,NNE,6.9,-,N/A,,Clear,30,2013-09-13 18:13:00
1:33 PM,62.6,48.2,59,30.24,10.0,NE,4.6,-,N/A,,Clear,40,2013-09-13 18:33:00
1:54 PM,62.6,48.2,59,30.23,10.0,NE,4.6,-,N/A,,Scattered Clouds,50,2013-09-13 18:54:00
2:13 PM,62.6,48.2,59,30.22,10.0,ENE,5.8,-,N/A,,Mostly Cloudy,60,2013-09-13 19:13:00
2:34 PM,62.6,48.2,59,30.21,10.0,East,4.6,-,N/A,,Mostly Cloudy,80,2013-09-13 19:34:00
2:53 PM,62.6,50.0,63,30.20,10.0,East,4.6,-,N/A,,Scattered Clouds,90,2013-09-13 19:53:00
3:13 PM,64.4,51.8,64,30.19,10.0,East,4.6,-,N/A,,Clear,90,2013-09-13 20:13:00
3:34 PM,64.4,51.8,64,30.18,10.0,East,5.8,-,N/A,,Clear,90,2013-09-13 20:34:00
3:53 PM,64.4,51.8,64,30.17,10.0,East,6.9,-,N/A,,Scattered Clouds,80,2013-09-13 20:53:00
4:13 PM,66.2,53.6,64,30.17,10.0,East,6.9,-,N/A,,Clear,100,2013-09-13 21:13:00
4:34 PM,64.4,51.8,64,30.16,10.0,East,5.8,-,N/A,,Clear,100,2013-09-13 21:34:00
4:53 PM,64.4,51.8,64,30.16,10.0,East,6.9,-,N/A,,Clear,100,2013-09-13 21:53:00
5:13 PM,64.4,51.8,64,30.15,10.0,East,5.8,-,N/A,,Clear,100,2013-09-13 22:13:00
5:34 PM,64.4,51.8,64,30.15,10.0,East,4.6,-,N/A,,Clear,100,2013-09-13 22:34:00
5:53 PM,64.4,53.6,68,30.14,10.0,ESE,8.1,-,N/A,,Clear,110,2013-09-13 22:53:00
6:13 PM,64.4,50.0,59,30.13,10.0,ESE,5.8,-,N/A,,Clear,120,2013-09-13 23:13:00
6:34 PM,62.6,53.6,72,30.13,10.0,SE,6.9,-,N/A,,Clear,130,2013-09-13 23:34:00
6:53 PM,62.6,53.6,72,30.12,10.0,ESE,6.9,-,N/A,,Clear,120,2013-09-13 23:53:00
7:13 PM,62.6,53.6,72,30.11,10.0,ESE,5.8,-,N/A,,Clear,120,2013-09-14 00:13:00
7:34 PM,60.8,53.6,77,30.11,10.0,ESE,5.8,-,N/A,,Clear,110,2013-09-14 00:34:00
7:53 PM,60.8,51.8,72,30.11,10.0,SE,5.8,-,N/A,,Clear,140,2013-09-14 00:53:00
8:13 PM,60.8,51.8,72,30.11,10.0,SSE,4.6,-,N/A,,Clear,150,2013-09-14 01:13:00
8:34 PM,60.8,51.8,72,30.10,7.0,South,8.1,-,N/A,,Clear,170,2013-09-14 01:34:00
8:53 PM,59.0,50.0,72,30.10,10.0,South,9.2,-,N/A,,Clear,170,2013-09-14 01:53:00
9:13 PM,59.0,50.0,72,30.10,10.0,South,9.2,-,N/A,,Clear,180,2013-09-14 02:13:00
9:34 PM,57.2,48.2,72,30.10,10.0,SSW,8.1,-,N/A,,Clear,210,2013-09-14 02:34:00
9:53 PM,55.4,50.0,82,30.10,10.0,SW,6.9,-,N/A,,Clear,230,2013-09-14 02:53:00
10:13 PM,55.4,50.0,82,30.09,10.0,SW,5.8,-,N/A,,Clear,220,2013-09-14 03:13:00
10:34 PM,55.4,48.2,77,30.08,10.0,SSW,5.8,-,N/A,,Clear,210,2013-09-14 03:34:00
10:53 PM,53.6,48.2,82,30.08,10.0,SW,5.8,-,N/A,,Clear,220,2013-09-14 03:53:00
11:14 PM,53.6,48.2,82,30.08,10.0,SW,5.8,-,N/A,,Clear,230,2013-09-14 04:14:00
11:33 PM,53.6,48.2,82,30.08,10.0,SW,5.8,-,N/A,,Clear,230,2013-09-14 04:33:00
11:53 PM,53.6,48.2,82,30.07,10.0,WSW,5.8,-,N/A,,Clear,240,2013-09-14 04:53:00